This is the latest recevied weather packets stored in our database for station/object AB4KY. If no packets are shown the sender has not sent any weather packets the latest 10 day(s).
| Time | Temp. | Humidity | Pressure | Rain* | Wind** | Luminosity | Snow |
|---|---|---|---|---|---|---|---|
| 1788608004 | 22.22° C | 99% | 1012.2 hPa | 0 mm | - | 0 W/m² | - |
| 1788607699 | 22.22° C | 99% | 1012.3 hPa | 0 mm | - | 0 W/m² | - |
| 1788607393 | 22.22° C | 99% | 1012.3 hPa | 0 mm | - | 0 W/m² | - |
| 1788607088 | 21.67° C | 99% | 1012.2 hPa | 0 mm | - | 0 W/m² | - |
| 1788606784 | 21.67° C | 99% | 1012.1 hPa | 0.51 mm | - | 0 W/m² | - |
| 1788606483 | 21.67° C | 99% | 1012 hPa | 6.1 mm | - | 0 W/m² | - |
| 1788606176 | 21.67° C | 99% | 1012.2 hPa | 8.89 mm | - | 0 W/m² | - |
| 1788605872 | 22.22° C | 99% | 1012.5 hPa | 1.78 mm | - | 0 W/m² | - |
| 1788605571 | 22.22° C | 99% | 1012.4 hPa | 0.51 mm | - | 0 W/m² | - |
| 1788605266 | 22.22° C | 99% | 1012.1 hPa | 1.27 mm | - | 0 W/m² | - |
| 1788604962 | 21.67° C | 99% | 1011.9 hPa | 7.87 mm | - | 0 W/m² | - |
| 1788604656 | 22.22° C | 96% | 1011.4 hPa | 30.73 mm | - | 0 W/m² | - |
| 1788604381 | 24.44° C | 97% | 1013.1 hPa | 13.21 mm | - | 0 W/m² | - |
| 1788604047 | 24.44° C | 94% | 1012.5 hPa | 0 mm | - | 0 W/m² | - |
| 1788603744 | 24.44° C | 95% | 1012.1 hPa | 0 mm | - | 0 W/m² | - |
| 1788603443 | 24.44° C | 94% | 1012.3 hPa | 0 mm | - | 0 W/m² | - |
| 1788603142 | 24.44° C | 93% | 1011.9 hPa | 0 mm | - | 0 W/m² | - |
| 1788602838 | 24.44° C | 96% | 1012 hPa | 0 mm | - | 0 W/m² | - |
| 1788602533 | 24.44° C | 97% | 1011.7 hPa | 0 mm | - | 0 W/m² | - |
| 1788602232 | 24.44° C | 97% | 1011.9 hPa | 0 mm | - | 0 W/m² | - |
| 1788601927 | 24.44° C | 97% | 1012.1 hPa | 0 mm | - | 0 W/m² | - |
| 1788601626 | 24.44° C | 97% | 1012 hPa | 0 mm | - | 0 W/m² | - |
| 1788601321 | 23.89° C | 98% | 1012.1 hPa | 0 mm | - | 0 W/m² | - |
| 1788601015 | 24.44° C | 98% | 1011.5 hPa | 0 mm | - | 0 W/m² | - |
| 1788600712 | 24.44° C | 98% | 1011.1 hPa | 0 mm | - | 0 W/m² | - |
* Rain latest hour (hover to see other rain measurements)
** Current wind speed in m/s (hover to see current wind gust speed)